Location: Endfield
(51.6667°N, 0.0667°W)
Time: 01:37:08
(UTC+00:00)

USA 267 - Pass Details

Date: 19 May 2024
Orbit: 1100 x 1107 km, 123.0° (Epoch: 21 May)

Event Time Altitude Azimuth Distance (km) Brightness Sun altitude
Rises 22:58:22 0° 58° (ENE) 3,923 6.4 -17.2°
Reaches altitude 10° 23:01:02 10° 66° (ENE) 2,963 5.6 -17.3°
Maximum altitude 23:07:10 42° 136° (SE) 1,526 3.6 -17.5°
Enters shadow 23:10:41 24° 191° (S) 2,107 4.2 -17.6°
